Date Time,Air Temp,Sky Temp,Clarity,Light Level,Rain Sensor,Readings
2012-10-25 00:00:43,19.2,9.1,10.1,0.0,2.3,111
2012-10-25 00:05:43,19.2,9.2,10.0,0.0,2.3,112
2012-10-25 00:10:43,19.2,9.3,9.9,0.0,2.4,111
2012-10-25 00:15:43,19.3,9.2,10.0,0.0,2.4,112
2012-10-25 00:20:43,19.3,9.5,9.8,0.0,2.4,111
2012-10-25 00:25:43,19.3,9.3,9.9,0.0,2.4,112
2012-10-25 00:30:43,19.2,9.4,9.8,0.0,2.3,111
2012-10-25 00:35:43,19.2,9.4,9.8,0.0,2.3,112
2012-10-25 00:40:43,19.2,9.4,9.8,0.0,2.3,111
2012-10-25 00:45:43,19.2,9.5,9.7,0.0,2.3,111
2012-10-25 00:50:43,19.2,9.6,9.6,0.0,2.3,112
2012-10-25 00:55:43,19.2,9.2,10.0,0.0,2.3,111
2012-10-25 01:00:43,19.1,9.3,9.8,0.0,2.3,111
2012-10-25 01:05:43,19.2,9.5,9.6,0.0,2.3,111
2012-10-25 01:10:43,19.2,9.6,9.6,0.0,2.3,112
2012-10-25 01:15:43,19.2,9.4,9.8,0.0,2.3,111
2012-10-25 01:20:43,19.3,9.7,9.5,0.0,2.3,112
2012-10-25 01:25:43,19.3,9.5,9.8,0.0,2.3,111
2012-10-25 01:30:43,19.3,8.5,10.8,0.0,2.3,112
2012-10-25 01:35:43,19.3,9.2,10.0,0.0,2.3,111
2012-10-25 01:40:43,19.3,9.5,9.8,0.0,2.3,112
2012-10-25 01:45:43,19.3,9.4,9.9,0.0,2.3,112
2012-10-25 01:50:43,19.3,9.3,10.0,0.0,2.3,111
2012-10-25 01:55:43,19.3,10.0,9.4,0.0,2.3,111
2012-10-25 02:00:43,19.4,9.5,9.9,0.0,2.3,112
2012-10-25 02:05:43,19.4,9.7,9.7,0.0,2.3,111
2012-10-25 02:10:43,19.4,9.4,10.1,0.0,2.4,112
2012-10-25 02:15:43,19.4,9.5,9.9,0.0,2.4,111
2012-10-25 02:20:43,19.5,9.8,9.7,0.0,2.4,112
2012-10-25 02:25:43,19.5,9.4,10.1,0.0,2.4,111
2012-10-25 02:30:43,19.5,9.5,10.0,0.0,2.5,112
2012-10-25 02:35:43,19.5,9.4,10.1,0.0,2.4,111
2012-10-25 02:40:43,19.6,9.2,10.4,0.0,2.5,112
2012-10-25 02:45:43,19.6,9.4,10.1,0.0,2.5,112
2012-10-25 02:50:43,19.6,9.4,10.2,0.0,2.6,111
2012-10-25 02:55:43,19.6,9.5,10.1,0.0,2.5,111
2012-10-25 03:00:43,19.6,9.7,10.0,0.0,2.5,112
2012-10-25 03:05:43,19.6,9.7,9.9,0.0,2.6,112
2012-10-25 03:10:43,19.7,9.7,10.0,0.0,2.6,111
2012-10-25 03:15:43,19.7,10.0,9.7,0.0,2.6,112
2012-10-25 03:20:43,19.8,9.8,10.0,0.0,2.7,111
2012-10-25 03:25:43,19.8,9.9,9.9,0.0,2.6,112
2012-10-25 03:30:43,19.8,10.0,9.8,0.0,2.7,112
2012-10-25 03:35:43,19.8,9.9,9.9,0.0,2.7,111
2012-10-25 03:40:43,19.8,10.0,9.8,0.0,2.7,112
2012-10-25 03:45:43,19.8,10.0,9.8,0.0,2.7,111
2012-10-25 03:50:43,19.9,10.1,9.7,0.0,2.7,111
2012-10-25 03:55:43,19.9,10.1,9.7,0.0,2.7,112
2012-10-25 04:00:43,19.9,10.1,9.8,0.0,2.6,111
2012-10-25 04:05:43,19.9,10.4,9.5,0.0,2.7,112
2012-10-25 04:10:43,20.0,10.5,9.5,0.0,2.6,112
2012-10-25 04:15:43,20.0,10.4,9.7,0.0,2.5,111
2012-10-25 04:20:43,20.1,10.3,9.7,0.0,2.6,112
2012-10-25 04:25:43,20.1,10.2,9.9,0.0,2.6,112
2012-10-25 04:30:43,20.0,10.3,9.7,0.0,2.6,111
2012-10-25 04:35:43,20.1,10.2,9.9,0.0,2.6,112
2012-10-25 04:40:43,20.1,10.3,9.8,0.0,2.6,111
2012-10-25 04:45:43,20.0,10.0,10.0,0.0,2.6,112
2012-10-25 04:50:43,20.0,9.8,10.2,0.0,2.6,111
2012-10-25 04:55:43,20.0,10.1,9.8,0.0,2.7,112
2012-10-25 05:00:43,20.0,10.4,9.6,0.0,2.6,112
2012-10-25 05:05:43,20.0,9.7,10.3,0.0,2.6,111
2012-10-25 05:10:43,20.1,9.0,11.1,0.0,2.5,111
2012-10-25 05:15:43,20.0,8.5,11.5,0.0,2.6,111
2012-10-25 05:20:43,19.9,7.4,12.5,0.0,2.6,112
2012-10-25 05:25:43,19.9,6.9,13.0,0.0,2.7,111
2012-10-25 05:30:43,19.8,7.0,12.8,0.0,2.7,112
2012-10-25 05:35:43,19.8,7.5,12.3,0.0,2.7,111
2012-10-25 05:40:43,19.9,4.6,15.4,0.0,2.7,112
2012-10-25 05:45:43,19.9,5.5,14.4,0.0,2.7,112
2012-10-25 05:50:43,19.8,4.2,15.7,0.0,2.7,111
2012-10-25 05:55:43,19.8,6.9,12.9,0.0,2.6,112
2012-10-25 06:00:43,19.4,9.5,9.9,0.0,2.7,111
2012-10-25 06:05:43,19.9,9.2,10.7,0.0,2.7,111
2012-10-25 06:10:43,19.9,10.0,10.0,0.0,2.6,112
2012-10-25 06:15:43,20.0,9.9,10.0,0.0,2.6,112
2012-10-25 06:20:43,20.0,9.9,10.1,0.0,2.5,112
2012-10-25 06:25:43,20.0,10.0,10.0,0.0,2.6,111
2012-10-25 06:30:43,20.0,9.9,10.0,0.0,2.5,112
2012-10-25 06:35:43,19.9,10.0,10.0,0.0,2.6,112
2012-10-25 06:40:43,19.9,10.1,9.8,0.0,2.6,111
2012-10-25 06:45:43,19.9,10.1,9.8,0.0,2.6,112
2012-10-25 06:50:43,19.9,10.1,9.8,0.1,2.6,111
2012-10-25 06:55:43,19.9,10.2,9.7,0.3,2.6,112
2012-10-25 07:00:43,19.8,10.0,9.8,0.6,2.6,111
2012-10-25 07:05:43,19.8,10.0,9.8,1.3,2.7,112
2012-10-25 07:10:43,19.8,10.2,9.6,3.0,2.7,112
2012-10-25 07:15:43,19.8,9.8,10.0,6.4,2.7,111
2012-10-25 07:20:43,19.8,9.7,10.1,11.1,2.6,112
2012-10-25 07:25:43,19.8,9.9,9.9,15.7,2.7,111
2012-10-25 07:30:43,19.7,9.9,9.8,19.9,2.7,112
2012-10-25 07:35:43,19.7,9.9,9.8,23.6,2.7,111
2012-10-25 07:40:43,19.7,10.0,9.7,26.1,2.7,112
2012-10-25 07:45:43,19.7,9.9,9.7,27.7,2.6,111
2012-10-25 07:50:43,19.6,9.8,9.9,29.0,2.6,112
2012-10-25 07:55:43,19.6,10.0,9.6,29.7,2.5,112
2012-10-25 08:00:43,19.5,9.7,9.8,30.5,2.5,112
2012-10-25 08:05:43,19.5,9.7,9.8,31.0,2.5,112
2012-10-25 08:10:43,19.5,9.7,9.8,31.2,2.4,111
2012-10-25 08:15:43,19.5,9.8,9.7,31.4,2.4,112
2012-10-25 08:20:43,19.5,9.8,9.7,31.5,2.4,111
2012-10-25 08:25:43,19.5,10.0,9.5,31.8,2.4,112
2012-10-25 08:30:43,19.6,9.8,9.7,31.8,2.4,112
2012-10-25 08:35:43,19.6,9.8,9.8,31.9,2.5,111
2012-10-25 08:40:43,19.6,9.7,9.8,32.0,2.5,111
2012-10-25 08:45:43,19.6,9.8,9.8,32.0,2.5,112
2012-10-25 08:50:43,19.6,9.9,9.7,32.0,2.5,111
2012-10-25 08:55:43,19.5,9.4,10.1,32.0,2.5,112
2012-10-25 09:00:43,19.5,9.6,9.9,32.0,2.4,111
2012-10-25 09:05:43,19.5,9.7,9.8,32.1,2.4,112
2012-10-25 09:10:43,19.5,9.7,9.9,32.2,2.4,111
2012-10-25 09:15:43,19.6,9.8,9.8,32.2,2.4,111
2012-10-25 09:20:43,19.6,9.6,10.0,32.2,2.5,112
2012-10-25 09:25:43,19.6,9.3,10.3,32.3,2.6,111
2012-10-25 09:30:43,19.6,9.5,10.2,32.2,2.6,112
2012-10-25 09:35:43,19.6,9.7,9.9,32.3,2.6,111
2012-10-25 09:40:43,19.7,9.6,10.1,32.3,2.6,112
2012-10-25 09:45:43,19.7,9.6,10.1,32.3,2.7,111
2012-10-25 09:50:43,19.8,9.6,10.2,32.3,2.7,112
2012-10-25 09:55:43,19.7,9.6,10.2,32.3,2.7,111
2012-10-25 10:00:43,19.8,9.8,9.9,32.3,2.7,112
2012-10-25 10:05:43,19.8,9.8,10.0,32.3,2.7,111
2012-10-25 10:10:43,19.9,9.8,10.0,32.3,2.7,112
2012-10-25 10:15:43,19.8,9.7,10.1,32.3,2.6,112
2012-10-25 10:20:44,19.9,9.9,10.0,32.4,2.6,111
2012-10-25 10:25:44,19.9,9.8,10.1,32.4,2.5,112
2012-10-25 10:30:44,20.0,9.8,10.1,32.4,2.5,111
2012-10-25 10:35:44,20.0,10.0,10.0,32.4,2.4,112
2012-10-25 10:40:44,20.1,9.5,10.6,32.4,2.3,111
2012-10-25 10:45:44,20.1,9.8,10.3,32.4,2.3,112
2012-10-25 10:50:44,20.1,10.0,10.1,32.5,2.3,112
2012-10-25 10:55:44,20.3,9.9,10.4,32.4,2.3,111
2012-10-25 11:00:44,20.3,9.9,10.4,32.5,2.3,112
2012-10-25 11:05:44,20.3,9.7,10.6,32.4,2.3,111
2012-10-25 11:10:44,20.3,9.7,10.6,32.4,2.3,112
2012-10-25 11:15:44,20.3,10.1,10.2,32.4,2.3,111
2012-10-25 11:20:44,20.3,10.1,10.2,32.4,2.3,111
2012-10-25 11:25:44,20.4,9.9,10.5,32.4,2.3,112
2012-10-25 11:30:44,20.3,10.0,10.3,32.4,2.3,112
2012-10-25 11:35:44,20.4,9.9,10.4,32.4,2.3,111
2012-10-25 11:40:44,20.4,10.0,10.4,32.4,2.3,111
2012-10-25 11:45:44,20.4,9.6,10.7,32.4,2.3,112
2012-10-25 11:50:44,20.3,10.0,10.2,32.4,2.3,112
2012-10-25 11:55:44,20.3,9.9,10.4,32.4,2.3,111
2012-10-25 12:00:44,20.3,9.8,10.5,32.4,2.3,112
2012-10-25 12:05:44,20.3,9.9,10.5,32.4,2.3,111
2012-10-25 12:10:44,20.3,9.7,10.6,32.4,2.3,112
2012-10-25 12:15:44,20.3,10.1,10.2,32.4,2.3,112
2012-10-25 12:20:44,20.4,9.9,10.5,32.4,2.3,112
2012-10-25 12:25:44,20.4,10.1,10.4,32.4,2.3,111
2012-10-25 12:30:44,20.4,10.1,10.4,32.4,2.3,111
2012-10-25 12:35:44,20.4,10.1,10.4,32.4,2.3,112
2012-10-25 12:40:44,20.5,10.2,10.3,32.4,2.3,112
2012-10-25 12:45:44,20.5,10.1,10.4,32.4,2.3,112
2012-10-25 12:50:44,20.6,10.0,10.6,32.4,2.3,112
2012-10-25 12:55:44,20.6,10.2,10.4,32.4,2.3,111
2012-10-25 13:00:44,20.7,10.3,10.4,32.4,2.3,112
2012-10-25 13:05:44,20.7,10.2,10.6,32.4,2.3,111
2012-10-25 13:10:44,20.7,10.3,10.4,32.4,2.3,112
2012-10-25 13:15:44,20.3,10.1,10.2,32.4,2.3,112
2012-10-25 13:20:44,20.6,10.1,10.5,32.4,2.3,112
2012-10-25 13:25:44,20.6,10.0,10.6,32.4,2.3,111
2012-10-25 13:30:44,20.6,10.1,10.4,32.4,2.3,112
2012-10-25 13:35:44,20.6,10.0,10.6,32.4,2.3,112
2012-10-25 13:40:44,20.5,10.0,10.5,32.3,2.3,111
2012-10-25 13:45:44,20.5,10.1,10.3,32.4,2.3,112
2012-10-25 13:50:44,20.4,10.0,10.4,32.3,2.3,112
2012-10-25 13:55:44,20.3,9.8,10.6,32.4,2.3,112
2012-10-25 14:00:44,20.2,9.8,10.4,32.4,2.3,111
2012-10-25 14:05:44,20.2,9.8,10.4,32.3,2.3,112
2012-10-25 14:10:44,20.1,9.5,10.6,32.4,2.3,111
2012-10-25 14:15:44,20.0,9.6,10.4,32.4,2.3,112
2012-10-25 14:20:44,20.0,9.5,10.4,32.4,2.3,112
2012-10-25 14:25:44,20.0,9.5,10.4,32.4,2.3,111
2012-10-25 14:30:44,20.0,9.7,10.3,32.4,2.4,112
2012-10-25 14:35:44,20.0,9.6,10.4,32.4,2.3,111
2012-10-25 14:40:44,20.0,9.3,10.7,32.4,2.3,111
2012-10-25 14:45:44,20.0,9.5,10.5,32.4,2.3,112
2012-10-25 14:50:44,20.0,9.4,10.6,32.4,2.3,111
2012-10-25 14:55:44,20.0,9.5,10.6,32.4,2.3,112
2012-10-25 15:00:44,20.0,9.5,10.5,32.4,2.3,112
2012-10-25 15:05:44,20.0,9.4,10.6,32.3,2.5,111
2012-10-25 15:10:44,19.9,9.3,10.6,32.3,2.5,112
2012-10-25 15:15:44,19.8,8.9,11.0,32.3,2.6,111
2012-10-25 15:20:44,19.7,8.7,11.0,32.3,2.7,111
2012-10-25 15:25:44,19.6,9.0,10.6,32.3,2.6,112
2012-10-25 15:30:44,19.6,9.0,10.5,32.3,2.6,111
2012-10-25 15:35:44,19.6,9.1,10.5,32.3,2.5,112
2012-10-25 15:40:44,19.6,8.9,10.7,32.3,2.5,111
2012-10-25 15:45:44,19.5,8.7,10.8,32.3,2.5,111
2012-10-25 15:50:44,19.5,8.7,10.8,32.3,2.4,112
2012-10-25 15:55:44,19.4,8.6,10.8,32.3,2.4,111
2012-10-25 16:00:44,19.4,8.4,10.9,32.3,2.4,111
2012-10-25 16:05:44,19.4,8.5,10.8,32.3,2.4,112
2012-10-25 16:10:44,19.4,8.5,10.8,32.2,2.4,111
2012-10-25 16:15:44,19.3,8.3,11.0,32.2,2.3,112
2012-10-25 16:20:44,19.3,8.3,11.0,32.2,2.3,111
2012-10-25 16:25:44,19.2,8.4,10.9,32.2,2.3,112
2012-10-25 16:30:44,19.2,8.2,11.0,32.1,2.3,111
2012-10-25 16:35:44,19.2,8.2,11.0,32.1,2.3,112
2012-10-25 16:40:44,19.2,8.3,10.9,32.1,2.3,111
2012-10-25 16:45:44,19.2,8.3,10.9,32.0,2.3,112
2012-10-25 16:50:44,19.2,8.2,11.0,32.0,2.3,111
2012-10-25 16:55:44,19.2,8.2,11.0,32.0,2.3,111
2012-10-25 17:00:44,19.1,8.0,11.1,32.0,2.3,112
2012-10-25 17:05:44,19.1,7.8,11.3,31.9,2.3,111
2012-10-25 17:10:44,18.7,7.7,11.0,31.8,2.3,112
2012-10-25 17:15:44,19.0,7.5,11.5,31.7,2.3,111
2012-10-25 17:20:44,18.9,7.4,11.5,31.7,2.3,111
2012-10-25 17:25:44,18.9,7.6,11.3,31.5,2.2,112
2012-10-25 17:30:44,18.8,7.5,11.3,31.2,2.2,111
2012-10-25 17:35:44,18.8,7.4,11.4,30.6,2.2,112
2012-10-25 17:40:44,18.7,7.2,11.5,30.3,2.1,111
2012-10-25 17:45:44,18.6,6.9,11.8,30.0,2.0,112
2012-10-25 17:50:44,18.6,6.3,12.2,29.3,1.9,111
2012-10-25 17:55:44,18.5,6.0,12.5,28.3,1.8,112
2012-10-25 18:00:44,18.4,6.2,12.2,26.4,1.8,111
2012-10-25 18:05:44,18.4,6.1,12.3,24.1,1.8,111
2012-10-25 18:10:44,18.4,5.4,13.0,19.8,1.8,112
2012-10-25 18:15:44,18.3,5.0,13.3,15.2,1.8,112
2012-10-25 18:20:44,18.3,1.7,16.6,11.6,1.9,112
2012-10-25 18:25:44,19.7,-2.2,21.9,8.8,2.1,111
2012-10-25 18:30:44,21.9,-2.7,24.6,5.4,2.5,112
2012-10-25 18:35:44,22.4,-0.4,22.9,2.7,2.3,111
2012-10-25 18:40:44,22.6,-0.9,23.5,1.5,2.3,112
2012-10-25 18:45:44,22.7,-0.3,23.0,0.8,2.3,111
2012-10-25 18:50:44,22.8,-0.2,23.0,0.5,2.3,112
2012-10-25 18:55:44,22.8,-1.9,24.7,0.3,2.3,112
2012-10-25 19:00:44,22.8,-2.1,24.9,0.2,2.3,111
2012-10-25 19:05:44,22.8,-1.0,23.8,0.2,2.3,112
2012-10-25 19:10:44,22.8,-1.4,24.1,0.2,2.3,111
2012-10-25 19:15:44,22.7,-6.1,28.9,0.1,2.3,111
2012-10-25 19:20:44,22.7,-5.7,28.3,0.2,2.3,112
2012-10-25 19:25:44,22.4,-2.3,24.7,0.2,2.3,111
2012-10-25 19:30:44,22.5,-2.0,24.5,0.2,2.3,112
2012-10-25 19:35:44,22.5,-1.7,24.2,0.2,2.3,112
2012-10-25 19:40:44,22.4,-0.7,23.2,0.2,2.3,112
2012-10-25 19:45:44,21.7,2.5,19.2,0.2,2.4,111
2012-10-25 19:50:44,19.2,5.1,14.1,0.2,2.3,111
2012-10-25 19:55:44,18.5,5.8,12.7,0.2,1.9,112
2012-10-25 20:00:44,18.2,6.2,12.1,0.1,1.8,111
2012-10-25 20:05:44,18.1,6.3,11.9,0.1,1.9,112
2012-10-25 20:10:44,18.1,6.6,11.5,0.1,1.9,111
2012-10-25 20:15:44,18.1,6.6,11.5,0.1,2.0,112
2012-10-25 20:20:44,18.1,6.5,11.6,0.1,2.1,111
2012-10-25 20:25:44,18.1,6.8,11.3,0.1,2.2,112
2012-10-25 20:30:44,18.0,6.5,11.5,0.1,2.2,111
2012-10-25 20:35:44,18.0,6.4,11.6,0.1,2.2,112
2012-10-25 20:40:44,18.0,6.3,11.7,0.1,2.2,111
2012-10-25 20:45:44,18.0,6.2,11.8,0.1,2.2,112
2012-10-25 20:50:44,17.6,6.4,11.2,0.1,2.3,111
2012-10-25 20:55:44,17.9,6.5,11.5,0.1,2.3,112
2012-10-25 21:00:44,17.6,6.1,11.5,0.2,2.3,111
2012-10-25 21:05:44,17.9,6.1,11.7,0.2,2.3,112
2012-10-25 21:10:44,17.8,6.3,11.6,0.2,2.3,111
2012-10-25 21:15:44,17.8,6.0,11.8,0.2,2.3,111
2012-10-25 21:20:44,17.8,5.8,12.0,0.2,2.3,112
2012-10-25 21:25:44,17.7,5.7,12.0,0.2,2.3,112
2012-10-25 21:30:44,17.7,5.9,11.8,0.2,2.3,111
2012-10-25 21:35:44,17.7,6.0,11.7,0.2,2.3,112
2012-10-25 21:40:44,17.6,5.7,11.9,0.2,2.3,112
2012-10-25 21:45:44,17.6,5.5,12.1,0.2,2.3,111
2012-10-25 21:50:44,17.6,5.6,12.0,0.2,2.3,112
2012-10-25 21:55:44,17.5,5.4,12.1,0.2,2.3,112
2012-10-25 22:00:44,17.4,5.3,12.2,0.2,2.3,112
2012-10-25 22:05:44,17.4,5.2,12.2,0.2,2.3,112
2012-10-25 22:10:44,17.4,5.1,12.2,0.2,2.3,111
2012-10-25 22:15:44,17.3,5.3,12.0,0.2,2.3,112
2012-10-25 22:20:44,17.3,5.5,11.9,0.2,2.3,112
2012-10-25 22:25:44,17.3,5.1,12.2,0.2,2.3,112
2012-10-25 22:30:44,17.3,5.3,12.0,0.2,2.3,111
2012-10-25 22:35:44,17.3,5.1,12.1,0.2,2.3,112
2012-10-25 22:40:44,17.2,5.0,12.2,0.2,2.3,111
2012-10-25 22:45:44,17.1,4.7,12.4,0.2,2.3,112
2012-10-25 22:50:44,17.0,4.4,12.6,0.2,2.3,111
2012-10-25 22:55:44,17.0,4.5,12.5,0.2,2.3,112
2012-10-25 23:00:44,17.0,4.5,12.5,0.2,2.4,112
2012-10-25 23:05:44,17.0,4.6,12.3,0.2,2.5,112
2012-10-25 23:10:44,16.9,4.7,12.2,0.3,2.6,112
2012-10-25 23:15:44,16.9,4.6,12.3,0.2,2.6,111
2012-10-25 23:20:44,16.9,4.7,12.2,0.2,2.6,111
2012-10-25 23:25:44,16.9,4.4,12.5,0.2,2.6,112
2012-10-25 23:30:44,16.9,4.9,12.1,0.2,2.6,111
2012-10-25 23:35:44,16.9,4.4,12.5,0.2,2.6,112
2012-10-25 23:40:44,16.9,4.6,12.3,0.2,2.6,112
2012-10-25 23:45:44,16.9,4.5,12.3,0.2,2.5,111
2012-10-25 23:50:44,16.9,4.5,12.4,0.2,2.5,112
2012-10-25 23:55:44,16.8,4.5,12.3,0.2,2.5,112
